Temperature
18 19 19 19 19 19 20 20 20 21 21 22 23 22 21 20 20 19 18 18 17 17 17 17 16 16 16 16 16 16 16 15 16 15 15 15 15 15 15 15 15 15 15 15
18 18 18 18 19 19 20 20 20 20 21 22 22 21 21 20 20 19 18 18 17 17 17 17 16 16 16 16 16 16 16 15 15 15 15 15 15 15 15 15 15 15 15 15
17 18 18 18 20 20 20 20 21 20 22 22 21 21 20 20 19 19 18 18 17 17 17 17 16 16 16 16 16 16 16 15 15 15 15 15 15 15 15 15 15 15 15 15
16 17 17 20 20 20 20 20 21 21 21 21 21 20 19 19 19 18 18 17 17 17 16 16 16 16 16 16 16 16 16 15 15 15 15 15 15 15 15 15 15 15 15 14
16 16 18 19 19 19 19 20 21 21 21 20 20 20 20 18 18 18 17 17 17 17 16 16 16 16 16 16 16 16 16 16 15 15 15 15 15 15 15 14 14 14 14 14
15 16 17 19 19 19 20 19 20 20 20 20 19 20 21 18 17 17 17 17 17 16 16 16 16 16 16 16 16 16 16 16 15 15 15 15 15 15 15 15 14 14 14 14
15 16 17 19 18 18 18 20 20 19 19 19 19 20 19 18 17 17 17 16 16 16 16 16 16 16 16 16 16 16 16 15 15 15 15 15 15 15 15 14 14 14 14 14
15 15 17 17 17 18 19 19 18 18 18 18 18 18 18 17 17 16 16 16 16 16 16 16 16 16 16 16 16 16 16 16 15 15 15 15 15 15 15 14 14 14 14 13
16 17 17 17 17 17 17 18 18 18 17 17 17 17 17 17 16 16 16 16 16 16 15 15 15 15 16 16 15 16 16 16 15 15 15 15 15 15 14 14 14 14 13 13
16 16 16 15 15 15 15 16 16 16 16 17 17 17 17 16 16 16 16 15 15 15 15 15 15 15 15 15 15 15 15 15 15 15 15 15 15 14 14 14 14 14 13 13
15 16 15 14 14 14 14 15 15 16 16 16 16 16 16 16 16 15 15 15 15 15 15 15 15 15 15 15 15 15 15 15 15 15 15 15 15 14 14 14 14 14 13 13
14 15 15 15 14 14 14 14 15 15 15 15 15 15 15 15 15 15 15 15 15 15 15 15 15 15 15 15 15 15 15 15 15 15 15 14 14 14 14 14 14 13 13 13
13 13 13 13 13 13 13 14 14 14 14 15 15 15 15 15 15 15 15 15 15 15 15 15 15 15 15 15 15 15 15 15 14 14 14 14 14 14 14 13 13 13 13 13
12 12 12 12 12 13 13 13 13 14 14 14 14 14 14 14 14 14 14 14 14 14 14 14 14 15 15 15 15 15 14 14 14 14 14 14 14 14 14 13 13 13 13 13
11 11 11 12 12 12 12 12 13 13 13 13 13 13 14 14 14 14 14 14 14 14 14 14 14 14 15 15 15 14 14 14 14 14 14 14 14 13 13 13 13 12 12 12
11 11 11 11 11 11 12 12 12 12 12 12 12 13 13 13 13 13 13 13 14 14 14 14 14 14 14 14 14 14 14 14 14 14 14 14 13 13 13 12 12 12 12 12
10 11 11 11 11 11 11 11 11 11 12 12 12 12 12 12 13 13 13 13 13 13 14 14 14 14 14 14 14 14 14 14 14 14 14 13 13 13 13 12 12 12 12 12
10 10 10 10 10 10 11 11 11 11 11 11 11 12 12 12 12 12 12 12 13 13 13 13 14 14 14 14 14 14 14 14 14 13 13 13 13 13 12 12 12 12 12 12
9 9 9 10 10 10 10 10 10 10 11 11 11 11 11 11 12 12 12 12 12 12 13 13 13 13 14 14 14 13 13 13 13 13 13 13 13 12 12 12 11 11 11 11
9 9 9 9 9 10 10 10 10 10 10 10 11 11 11 11 11 11 11 11 12 12 13 13 13 13 13 13 13 13 13 13 13 13 12 12 12 12 12 12 11 11 11 11
8 8 8 9 9 9 9 9 9 9 10 10 10 10 10 10 11 11 11 11 11 12 12 12 13 13 13 13 13 12 12 12 12 12 12 12 12 11 11 11 11 11 10 10
8 8 8 8 8 8 9 9 9 9 9 9 9 9 10 10 10 10 10 11 11 12 12 12 12 12 12 12 12 12 12 12 12 12 12 11 11 11 11 11 10 10 10 10
7 7 7 7 8 8 8 8 8 9 9 9 9 9 9 9 10 10 10 10 11 11 12 12 12 12 12 12 12 12 12 11 11 11 11 11 11 11 11 10 10 10 10 10
7 7 7 7 7 7 7 8 8 8 8 8 8 9 9 9 9 9 10 10 10 11 11 11 12 12 11 11 11 11 11 11 11 11 11 11 10 10 10 10 10 10 10 9
6 7 7 6 6 7 7 7 7 7 8 8 8 8 8 9 9 9 9 10 10 10 10 11 11 11 11 10 10 10 10 10 10 10 10 10 10 10 10 10 10 9 9 9
6 6 6 6 6 6 6 7 7 7 7 7 7 7 8 8 9 9 9 9 9 10 10 10 10 10 10 10 10 10 10 10 9 10 9 10 9 9 9 9 9 9 9 8
5 6 6 6 6 6 6 6 6 6 6 6 7 7 7 8 8 8 8 8 8 9 9 9 9 9 9 9 9 9 9 9 9 9 9 9 9 9 9 9 8 8 8 8
Wind_Speed
10 9 9 11 12 13 15 13 11 10 11 9 6 4 3 3 3 3 3 4 5 5 6 7 7 8 8 8 9 9 9 9 8 7 7 7 7 7 7 7 7 6 6 6
11 10 11 14 15 16 16 15 14 13 13 9 6 5 4 4 4 4 4 4 4 5 6 7 8 8 8 8 9 10 9 9 8 8 8 7 7 7 7 7 7 7 7 6
9 8 10 14 15 15 14 14 14 14 12 7 7 7 6 5 5 5 4 4 4 5 6 7 8 9 9 9 9 10 10 9 8 8 8 8 7 8 7 8 7 7 6 6
7 7 11 7 5 10 13 14 13 13 10 9 9 7 6 5 5 4 3 4 5 5 5 6 7 7 8 8 10 10 10 9 9 8 8 8 8 8 8 7 7 7 7 6
6 9 10 8 6 9 12 12 12 12 10 8 6 6 6 4 4 4 4 4 5 6 6 6 7 7 8 9 9 10 9 9 9 9 9 9 8 8 7 7 7 7 7 7
8 8 9 6 3 4 8 11 9 10 10 8 6 7 4 3 3 3 3 3 4 5 6 6 6 7 8 9 9 9 9 9 9 9 9 9 9 8 7 7 6 6 6 6
12 11 9 4 2 4 9 5 4 7 7 8 8 6 3 2 3 3 3 3 3 5 6 6 7 8 9 9 9 8 8 8 8 9 9 9 8 7 7 7 7 6 6 6
10 11 9 3 5 7 5 2 3 5 6 7 6 4 4 3 3 3 3 3 4 5 5 6 7 8 9 9 8 8 8 8 8 8 8 8 8 8 8 8 7 7 6 6
9 8 4 4 7 6 6 6 5 5 6 7 6 6 5 4 4 4 4 4 4 5 6 6 7 8 8 8 7 8 8 9 8 8 8 8 9 9 8 8 7 7 6 6
9 10 9 9 9 9 8 8 7 7 7 7 7 7 6 5 4 4 4 4 4 5 6 6 7 7 7 7 7 8 9 8 8 8 8 8 7 7 7 7 8 7 7 7
11 11 9 10 10 9 9 8 7 7 7 8 8 8 7 5 5 5 5 5 5 5 6 6 7 7 6 7 8 9 8 8 8 8 8 8 7 6 7 7 7 7 7 7
9 8 8 9 9 9 9 8 8 7 7 7 8 8 7 6 6 6 6 5 6 6 6 6 7 7 7 7 8 9 8 7 7 7 7 7 7 5 2 2 4 5 4 5
10 10 10 11 11 10 10 10 8 8 8 7 7 7 7 7 6 6 7 7 6 6 6 6 6 7 7 8 9 9 9 8 7 7 7 7 7 7 5 3 3 4 5 5
11 10 11 11 11 11 10 9 8 7 7 7 6 6 7 7 7 7 7 7 6 6 6 6 6 7 7 8 8 9 8 7 7 7 7 7 7 7 6 6 5 4 3 5
12 12 12 12 11 9 8 7 7 7 6 6 5 6 7 7 7 7 7 6 6 6 6 6 6 6 7 8 8 8 8 7 7 7 7 7 7 7 7 7 6 5 4 5
11 10 11 11 10 9 8 7 7 7 7 6 6 6 6 7 7 7 6 6 7 7 6 6 7 6 7 8 8 7 7 7 7 7 7 7 7 7 7 7 6 6 6 6
10 10 10 10 9 9 8 8 8 8 7 7 6 6 6 6 6 6 6 7 7 6 6 6 6 6 7 8 8 6 6 7 8 7 7 7 7 7 7 7 7 6 6 7
10 10 10 10 9 9 8 8 7 8 7 6 6 5 6 6 6 6 6 6 6 6 5 6 5 6 7 7 7 6 6 7 7 7 7 7 7 7 7 7 7 7 6 6
8 8 8 8 8 8 7 6 6 6 6 6 6 6 6 6 6 6 6 6 6 6 5 5 5 6 7 7 6 6 6 7 7 7 7 7 7 7 7 7 7 7 7 6
6 6 6 6 6 6 6 5 5 5 5 5 5 6 6 5 5 5 6 6 5 5 4 4 5 6 6 7 6 6 6 7 7 7 7 7 7 7 7 7 7 7 7 6
5 5 5 4 5 5 4 4 4 4 4 4 4 5 5 5 5 5 5 5 4 4 4 4 5 5 5 5 6 5 6 7 7 7 7 7 7 7 7 7 7 7 6 6
5 4 4 4 4 4 3 3 3 3 3 3 3 4 4 5 5 5 5 4 3 3 3 4 4 4 4 5 5 5 6 7 6 6 6 7 7 7 7 7 7 6 6 6
4 3 3 3 3 3 2 2 2 2 2 3 3 3 4 4 4 4 4 3 3 3 3 4 4 5 6 5 5 6 6 6 6 6 6 6 7 7 7 7 6 6 6 6
4 3 3 3 2 1 1 2 2 1 1 2 2 2 3 3 3 3 3 3 3 4 3 4 6 7 6 5 5 5 6 6 5 5 6 6 6 6 7 7 7 7 7 7
3 3 2 2 1 1 2 2 1 1 1 1 1 2 2 2 3 3 2 3 4 4 3 5 7 7 5 4 5 5 5 5 5 5 6 6 6 6 6 7 7 7 7 7
3 2 2 2 2 1 1 1 1 1 1 1 1 2 2 2 2 2 2 3 3 3 3 3 5 5 4 4 5 5 5 5 5 5 6 6 6 6 6 7 8 6 6 6
2 2 1 1 1 1 1 1 1 1 1 2 2 2 2 1 1 1 2 2 2 2 2 3 3 4 4 4 4 4 4 4 5 5 5 5 5 5 6 7 6 6 6 7
Wind_Direction
259 265 255 252 240 230 234 239 244 245 251 259 265 264 253 233 212 198 183 175 177 178 177 178 177 179 178 177 178 180 183 185 185 185 183 183 179 178 181 180 181 179 178 177
251 250 248 253 248 237 237 240 242 250 252 259 262 251 241 231 219 214 201 192 190 188 185 185 183 183 179 176 179 181 184 184 179 182 177 178 179 179 180 178 178 176 180 176
247 249 254 246 238 232 229 230 232 240 246 248 247 238 237 234 233 228 214 208 206 202 196 190 189 188 185 179 178 182 184 181 178 180 177 178 175 177 177 177 174 175 178 172
249 240 239 242 223 231 234 235 234 242 246 241 243 241 237 230 228 224 224 224 218 211 203 195 188 188 184 179 179 182 183 180 178 178 175 175 175 176 178 178 175 177 176 170
235 238 252 251 235 224 228 237 230 232 235 236 237 232 220 219 236 236 230 229 219 210 199 193 185 181 182 181 181 182 183 181 179 178 176 176 178 179 178 177 177 178 174 176
229 235 241 238 199 223 234 238 221 224 227 221 214 231 228 202 228 245 241 233 217 200 194 186 181 179 182 183 182 185 186 184 180 178 176 178 179 178 175 175 176 176 174 182
229 237 247 253 221 209 223 236 194 214 218 212 219 245 255 230 235 237 228 221 205 195 192 189 184 183 185 185 187 184 180 178 176 180 181 178 173 171 170 170 172 178 176 178
222 232 238 185 189 216 252 295 239 229 223 224 233 252 252 246 240 231 221 210 203 197 195 190 189 191 190 190 184 175 173 175 176 177 176 174 170 172 173 167 170 178 181 179
226 238 268 228 236 262 287 274 262 249 237 230 237 248 257 256 242 228 222 213 208 200 195 192 193 196 196 188 178 172 171 174 176 174 173 173 175 174 174 176 181 185 188 190
244 251 261 265 265 269 275 276 275 263 255 241 245 250 250 253 242 230 224 219 213 202 198 196 195 197 199 184 178 176 175 176 176 176 175 176 177 179 181 185 190 194 195 194
253 259 266 265 268 271 277 278 272 265 258 252 249 248 243 245 239 230 224 220 216 210 207 204 197 194 191 182 180 181 179 177 177 179 177 178 179 183 190 194 196 196 198 196
250 261 264 271 277 280 279 274 268 261 259 254 249 248 244 241 238 228 223 220 217 215 212 207 199 194 189 186 183 182 182 180 180 180 179 179 175 170 122 171 162 180 190 199
265 277 280 280 282 282 278 279 275 263 255 254 253 247 243 239 236 229 223 220 219 217 215 209 201 197 192 191 190 190 188 183 181 181 179 180 178 178 176 145 136 169 179 182
272 275 272 272 276 280 277 277 278 272 263 254 253 250 243 240 235 230 226 224 220 217 213 209 204 201 196 193 191 192 190 183 182 183 183 183 183 184 183 181 180 184 180 169
264 262 264 270 274 273 269 267 267 266 265 258 250 249 243 237 234 233 229 225 222 219 216 211 207 203 196 194 192 192 189 186 186 183 182 184 182 181 182 184 181 175 166 158
270 268 263 261 262 264 264 263 264 267 263 258 252 251 249 242 238 232 225 219 217 219 218 213 211 204 195 193 190 189 188 181 183 182 181 182 180 179 181 183 181 178 177 169
267 265 262 261 265 266 265 265 266 265 260 253 252 254 250 239 231 222 216 215 217 219 219 214 210 203 196 194 189 186 183 180 179 183 184 182 181 183 184 185 184 183 180 169
267 269 267 264 262 264 267 267 266 262 254 251 249 245 241 232 226 220 212 211 213 216 219 216 208 201 195 192 190 187 183 181 186 187 184 183 181 183 184 183 183 181 171 163
279 279 277 271 263 259 260 262 262 261 253 239 234 238 240 235 226 219 209 208 212 213 217 210 196 198 192 188 184 186 185 183 184 183 182 175 179 181 181 182 181 180 174 169
289 291 287 283 275 266 263 263 262 261 253 240 229 232 233 226 217 211 208 213 217 215 211 198 193 197 191 183 180 188 186 183 181 179 178 180 183 183 182 182 182 180 178 176
298 296 293 291 290 280 268 261 259 261 256 242 229 229 228 219 209 205 208 218 219 204 199 184 193 193 187 178 180 185 182 180 179 178 178 180 182 182 181 181 181 180 179 176
304 301 298 297 295 285 275 264 256 261 257 247 242 233 221 211 206 207 215 226 224 189 187 189 193 180 172 169 182 181 179 177 176 175 177 179 179 180 180 180 180 180 179 176
309 302 298 295 286 274 278 272 263 262 262 258 247 234 222 211 211 214 220 222 212 193 196 194 174 157 161 177 181 178 177 177 177 177 179 180 180 179 178 177 178 177 177 176
314 316 307 296 280 255 267 285 286 278 276 281 262 240 227 216 218 224 229 201 191 191 204 177 158 160 168 180 178 177 178 177 177 178 177 175 176 176 176 176 176 176 177 176
315 312 299 295 282 269 267 273 273 278 287 279 270 254 242 234 230 226 216 203 186 185 189 167 162 166 175 176 175 175 177 177 176 176 176 174 175 176 177 178 178 177 177 177
311 307 293 278 274 275 272 255 251 258 260 262 272 267 261 252 226 218 210 193 185 181 177 167 169 172 178 176 176 174 171 168 169 175 177 175 178 178 178 178 176 177 176 175
318 321 324 324 313 298 284 265 255 258 256 253 266 278 281 273 229 191 177 171 164 161 157 158 162 166 171 170 169 168 170 168 171 174 175 176 179 181 179 175 173 171 170 170
Height
1507 1506 1505 1505 1504 1505 1506 1503 1505 1500 1499 1494 1495 1498 1500 1501 1503 1504 1505 1505 1506 1507 1509 1511 1513 1515 1517 1519 1522 1524 1527 1530 1532 1535 1537 1539 1541 1543 1545 1547 1548 1550 1552 1553
1507 1505 1504 1503 1499 1499 1500 1499 1499 1499 1497 1493 1495 1497 1498 1500 1501 1502 1503 1504 1505 1506 1507 1509 1511 1513 1515 1517 1519 1522 1525 1528 1530 1533 1535 1537 1539 1541 1543 1545 1547 1548 1550 1552
1505 1503 1502 1500 1492 1492 1493 1492 1493 1494 1491 1492 1494 1495 1496 1498 1499 1500 1501 1502 1503 1504 1505 1507 1509 1511 1513 1515 1517 1520 1523 1526 1528 1530 1533 1535 1537 1539 1541 1543 1545 1547 1549 1551
1506 1505 1507 1487 1485 1486 1488 1488 1488 1488 1488 1490 1492 1493 1495 1496 1497 1498 1498 1499 1500 1502 1503 1505 1507 1509 1511 1513 1515 1518 1521 1523 1526 1528 1530 1533 1535 1537 1539 1541 1543 1545 1547 1549
1505 1503 1493 1485 1484 1484 1486 1484 1484 1485 1486 1488 1490 1491 1492 1493 1494 1495 1496 1497 1498 1499 1501 1503 1504 1506 1509 1511 1513 1516 1518 1521 1523 1526 1528 1530 1533 1535 1537 1539 1541 1543 1545 1547
1503 1502 1495 1482 1480 1483 1484 1483 1480 1482 1483 1486 1488 1487 1487 1490 1492 1493 1493 1494 1495 1496 1498 1500 1502 1504 1506 1508 1511 1513 1515 1518 1521 1523 1526 1528 1531 1533 1535 1537 1539 1541 1543 1545
1499 1496 1484 1479 1482 1484 1487 1479 1478 1480 1482 1484 1485 1485 1487 1488 1489 1490 1491 1492 1493 1494 1495 1497 1499 1501 1504 1506 1508 1511 1513 1516 1518 1521 1524 1526 1529 1531 1533 1535 1537 1540 1541 1543
1492 1492 1485 1479 1481 1481 1477 1476 1477 1478 1480 1482 1484 1485 1485 1486 1487 1487 1488 1489 1490 1491 1493 1495 1496 1499 1501 1503 1506 1508 1510 1513 1516 1518 1521 1524 1526 1528 1531 1533 1535 1537 1539 1541
1482 1480 1476 1477 1477 1477 1477 1476 1476 1477 1478 1480 1481 1482 1483 1484 1484 1485 1485 1486 1487 1489 1490 1492 1494 1496 1498 1501 1503 1505 1508 1510 1513 1516 1518 1521 1523 1526 1528 1530 1532 1534 1536 1538
1478 1475 1476 1476 1476 1475 1476 1475 1475 1475 1476 1477 1478 1479 1480 1481 1481 1482 1483 1484 1485 1486 1488 1489 1491 1493 1495 1498 1500 1502 1505 1508 1510 1513 1515 1518 1520 1523 1525 1527 1529 1531 1533 1535
1475 1474 1474 1473 1473 1473 1472 1472 1472 1472 1473 1474 1475 1476 1477 1478 1478 1479 1480 1481 1482 1484 1485 1486 1488 1490 1492 1494 1497 1500 1502 1505 1507 1510 1512 1514 1517 1519 1522 1524 1526 1528 1530 1532
1471 1471 1471 1470 1470 1469 1468 1468 1468 1469 1469 1470 1471 1472 1473 1474 1475 1476 1477 1478 1479 1481 1482 1484 1485 1487 1489 1491 1494 1496 1499 1501 1504 1506 1509 1511 1513 1516 1518 1521 1523 1525 1527 1529
1470 1469 1469 1467 1466 1466 1465 1464 1464 1465 1465 1466 1467 1468 1469 1470 1471 1472 1473 1474 1476 1477 1479 1480 1482 1483 1486 1488 1490 1493 1495 1497 1500 1502 1505 1507 1510 1512 1514 1517 1519 1521 1523 1525
1466 1466 1464 1463 1463 1462 1462 1460 1460 1461 1461 1462 1463 1464 1465 1466 1467 1468 1469 1470 1472 1474 1475 1477 1478 1480 1482 1484 1487 1489 1492 1494 1496 1498 1501 1503 1506 1508 1510 1512 1514 1516 1518 1520
1461 1461 1460 1459 1458 1458 1457 1457 1456 1456 1457 1458 1458 1459 1460 1461 1462 1463 1465 1466 1468 1469 1471 1473 1474 1476 1478 1480 1483 1485 1488 1490 1492 1495 1497 1500 1502 1504 1506 1509 1510 1512 1514 1516
1455 1455 1455 1454 1453 1453 1452 1452 1452 1452 1452 1453 1454 1454 1455 1456 1458 1459 1460 1462 1463 1465 1466 1468 1470 1472 1474 1476 1479 1481 1484 1486 1488 1491 1493 1496 1498 1500 1502 1504 1506 1508 1510 1511
1450 1449 1449 1449 1448 1448 1448 1448 1447 1447 1447 1448 1449 1450 1451 1452 1453 1454 1456 1457 1459 1460 1462 1464 1465 1467 1470 1472 1474 1477 1479 1482 1484 1487 1489 1492 1494 1496 1498 1500 1502 1504 1506 1507
1446 1445 1444 1443 1443 1443 1443 1442 1442 1443 1443 1444 1444 1445 1447 1448 1449 1450 1452 1454 1455 1457 1458 1460 1462 1463 1466 1468 1470 1473 1475 1477 1480 1483 1485 1487 1489 1492 1494 1496 1498 1500 1502 1503
1440 1440 1439 1439 1438 1438 1438 1437 1438 1438 1439 1440 1440 1441 1443 1444 1445 1447 1448 1450 1451 1452 1454 1456 1458 1460 1462 1464 1467 1469 1471 1473 1476 1479 1481 1483 1486 1488 1490 1492 1494 1496 1498 1499
1436 1435 1434 1434 1434 1434 1433 1433 1434 1434 1435 1436 1436 1438 1439 1440 1442 1443 1445 1446 1447 1448 1450 1452 1454 1456 1458 1460 1463 1465 1467 1469 1472 1474 1476 1479 1481 1484 1486 1488 1490 1492 1494 1496
1432 1431 1430 1430 1430 1430 1430 1430 1431 1431 1431 1432 1433 1434 1436 1437 1439 1440 1442 1443 1444 1446 1447 1448 1450 1452 1454 1456 1458 1461 1463 1465 1467 1470 1472 1475 1477 1480 1482 1484 1486 1488 1490 1492
1428 1427 1427 1427 1426 1427 1428 1428 1428 1428 1428 1429 1430 1431 1433 1434 1436 1437 1438 1440 1441 1442 1443 1444 1447 1448 1450 1452 1455 1457 1459 1461 1463 1465 1468 1470 1473 1475 1477 1480 1482 1484 1486 1488
1426 1425 1425 1425 1424 1425 1425 1425 1426 1425 1426 1426 1427 1428 1430 1431 1432 1434 1435 1436 1437 1438 1439 1441 1443 1445 1447 1449 1451 1453 1455 1457 1459 1462 1464 1466 1468 1471 1473 1475 1477 1480 1482 1483
1424 1424 1423 1423 1423 1423 1423 1423 1424 1424 1424 1424 1424 1426 1427 1428 1429 1430 1432 1433 1434 1435 1436 1438 1439 1441 1444 1446 1447 1449 1452 1454 1456 1458 1460 1462 1464 1467 1469 1471 1473 1475 1477 1479
1423 1423 1422 1421 1421 1421 1422 1422 1422 1422 1422 1422 1422 1423 1424 1425 1426 1427 1428 1429 1431 1432 1433 1435 1437 1438 1440 1442 1444 1446 1448 1450 1452 1454 1456 1458 1460 1462 1464 1467 1469 1471 1473 1475
1421 1421 1421 1421 1421 1421 1421 1421 1420 1420 1420 1420 1420 1421 1422 1422 1423 1424 1425 1426 1428 1429 1431 1432 1433 1435 1437 1439 1441 1442 1444 1446 1448 1450 1452 1454 1456 1458 1460 1463 1465 1467 1469 1471
1420 1420 1419 1419 1419 1419 1419 1419 1419 1419 1418 1418 1418 1418 1419 1419 1420 1421 1422 1423 1425 1426 1428 1429 1431 1432 1434 1436 1438 1439 1441 1443 1445 1447 1448 1450 1452 1454 1456 1458 1461 1463 1464 1466